When you browse on this site, cookies collect data to enhance your experience and personalize the content and advertising you see.
Visit our Privacy Policy to learn more. By continuing to use the site, you agree to this use of cookies and data.
  • In Austria
  • List of Countries
  • For 7 days
  • Water Temperature
  • Satellite Maps
  • Weather Map
  • News
  • Weather Widgets
  • user-avatar
    Login

    Hourly Weather Prutz

    Today, 19 January, Saturday

    Time Temperature Precipitation Wind Pressure Humidity
    00:00 -15°C° 0 mm 3 mps 627 mmHg 75%
    01:00 -15°C° 0 mm 3 mps 627 mmHg 72%
    02:00 -14°C° 0 mm 3 mps 627 mmHg 71%
    03:00 -14°C° 0 mm 3 mps 627 mmHg 69%
    04:00 -14°C° 0 mm 3 mps 627 mmHg 68%
    05:00 -14°C° 0 mm 3 mps 627 mmHg 69%
    06:00 -14°C° 0 mm 3 mps 626 mmHg 69%
    07:00 -12°C° 0 mm 2 mps 626 mmHg 70%
    08:00 -10°C° 0 mm 2 mps 627 mmHg 72%
    09:00 -9°C° 0 mm 2 mps 627 mmHg 74%
    10:00 -7°C° 0 mm 2 mps 628 mmHg 77%
    11:00 -4°C° 0 mm 1 mps 628 mmHg 74%
    12:00 -3°C° 0 mm 1 mps 628 mmHg 72%
    13:00 -1°C° 0 mm 1 mps 628 mmHg 70%
    14:00 -2°C° 0 mm 1 mps 627 mmHg 75%
    15:00 -4°C° 0 mm 0 mps 627 mmHg 79%
    16:00 -4°C° 0 mm 0 mps 626 mmHg 84%
    17:00 -6°C° 0 mm 1 mps 626 mmHg 84%
    18:00 -7°C° 0 mm 1 mps 626 mmHg 84%
    19:00 -8°C° 0 mm 1 mps 625 mmHg 84%
    20:00 -9°C° 0 mm 2 mps 625 mmHg 83%
    21:00 -10°C° 0 mm 2 mps 625 mmHg 83%
    22:00 -10°C° 0 mm 2 mps 625 mmHg 82%
    23:00 -12°C° 0 mm 2 mps 625 mmHg 82%

    Tomorrow, 20 January, Sunday

    Time Temperature Precipitation Wind Pressure Humidity
    00:00 -12°C° 0 mm 2 mps 625 mmHg 82%
    01:00 -12°C° 0 mm 2 mps 625 mmHg 81%
    02:00 -13°C° 0 mm 2 mps 624 mmHg 81%
    03:00 -13°C° 0 mm 2 mps 624 mmHg 81%
    04:00 -11°C° 0 mm 1 mps 624 mmHg 81%
    05:00 -11°C° 0 mm 1 mps 624 mmHg 81%
    06:00 -11°C° 0 mm 1 mps 624 mmHg 81%
    07:00 -11°C° 0 mm 1 mps 624 mmHg 82%
    08:00 -10°C° 0 mm 1 mps 625 mmHg 81%
    09:00 -8°C° 0 mm 1 mps 626 mmHg 81%
    10:00 -6°C° 0 mm 1 mps 627 mmHg 81%
    11:00 -4°C° 0 mm 1 mps 627 mmHg 77%
    12:00 -3°C° 0 mm 1 mps 627 mmHg 74%
    13:00 -2°C° 0 mm 1 mps 627 mmHg 70%
    14:00 -3°C° 0 mm 1 mps 627 mmHg 76%
    15:00 -3°C° 0 mm 1 mps 626 mmHg 82%
    16:00 -4°C° 0 mm 1 mps 626 mmHg 88%
    17:00 -7°C° 0 mm 1 mps 626 mmHg 88%
    18:00 -8°C° 0 mm 1 mps 626 mmHg 89%
    19:00 -9°C° 0 mm 0 mps 626 mmHg 90%
    20:00 -10°C° 0 mm 1 mps 626 mmHg 89%
    21:00 -10°C° 0 mm 1 mps 627 mmHg 87%
    22:00 -10°C° 0 mm 1 mps 627 mmHg 85%
    23:00 -10°C° 0 mm 1 mps 627 mmHg 86%

    Day after tomorrow, 21 January, Monday

    Time Temperature Precipitation Wind Pressure Humidity
    00:00 -10°C° 0 mm 1 mps 627 mmHg 86%
    01:00 -10°C° 0 mm 1 mps 627 mmHg 86%
    02:00 -10°C° 0 mm 1 mps 627 mmHg 87%
    03:00 -11°C° 0 mm 1 mps 627 mmHg 88%
    04:00 -11°C° 0 mm 1 mps 627 mmHg 89%
    05:00 -11°C° 0 mm 1 mps 627 mmHg 90%
    06:00 -11°C° 0 mm 1 mps 628 mmHg 90%
    07:00 -11°C° 0 mm 1 mps 628 mmHg 91%
    08:00 -9°C° 0 mm 1 mps 629 mmHg 90%
    09:00 -8°C° 0 mm 1 mps 629 mmHg 89%
    10:00 -6°C° 0 mm 1 mps 630 mmHg 88%
    11:00 -6°C° 0 mm 1 mps 630 mmHg 87%
    12:00 -4°C° 0 mm 1 mps 630 mmHg 87%
    13:00 -3°C° 0 mm 1 mps 630 mmHg 86%
    14:00 -3°C° 0 mm 1 mps 630 mmHg 87%
    15:00 -4°C° 0 mm 1 mps 630 mmHg 89%
    16:00 -4°C° 0 mm 1 mps 629 mmHg 90%
    17:00 -7°C° 0 mm 1 mps 629 mmHg 92%
    18:00 -9°C° 0 mm 1 mps 628 mmHg 94%
    19:00 -11°C° 0 mm 0 mps 628 mmHg 96%
    20:00 -12°C° 0 mm 1 mps 628 mmHg 94%
    21:00 -12°C° 0 mm 1 mps 628 mmHg 92%
    22:00 -13°C° 0 mm 1 mps 628 mmHg 89%
    23:00 -15°C° 0 mm 2 mps 627 mmHg 84%

    22 January, Tuesday

    Time Temperature Precipitation Wind Pressure Humidity
    00:00 -15°C° 0 mm 2 mps 627 mmHg 79%
    01:00 -16°C° 0 mm 2 mps 627 mmHg 73%
    02:00 -16°C° 0 mm 2 mps 626 mmHg 67%
    03:00 -16°C° 0 mm 2 mps 626 mmHg 62%
    04:00 -16°C° 0 mm 2 mps 626 mmHg 56%
    05:00 -16°C° 0 mm 2 mps 625 mmHg 53%
    06:00 -15°C° 0 mm 2 mps 625 mmHg 49%
    07:00 -15°C° 0 mm 2 mps 624 mmHg 46%
    08:00 -13°C° 0 mm 2 mps 625 mmHg 51%
    09:00 -10°C° 0 mm 2 mps 625 mmHg 55%
    10:00 -9°C° 0 mm 2 mps 625 mmHg 60%
    11:00 -7°C° 0 mm 2 mps 625 mmHg 59%
    12:00 -5°C° 0 mm 2 mps 624 mmHg 58%
    13:00 -3°C° 0 mm 2 mps 624 mmHg 58%
    14:00 -4°C° 0 mm 2 mps 623 mmHg 63%
    15:00 -5°C° 0 mm 2 mps 621 mmHg 68%
    16:00 -6°C° 0 mm 2 mps 620 mmHg 73%
    17:00 -8°C° 0 mm 2 mps 619 mmHg 71%
    18:00 -13°C° 0 mm 3 mps 618 mmHg 69%
    19:00 -15°C° 0 mm 3 mps 617 mmHg 67%
    20:00 -15°C° 0 mm 3 mps 617 mmHg 67%
    21:00 -15°C° 0 mm 3 mps 617 mmHg 67%
    22:00 -15°C° 0 mm 3 mps 616 mmHg 67%
    23:00 -15°C° 0 mm 3 mps 616 mmHg 69%

    23 January, Wednesday

    Time Temperature Precipitation Wind Pressure Humidity
    00:00 -15°C° 0 mm 3 mps 616 mmHg 71%
    01:00 -13°C° 0 mm 2 mps 615 mmHg 73%
    02:00 -13°C° 0 mm 2 mps 615 mmHg 75%
    03:00 -11°C° 0 mm 1 mps 614 mmHg 76%
    04:00 -11°C° 0 mm 1 mps 614 mmHg 78%
    05:00 -11°C° 0.1 mm 1 mps 613 mmHg 79%
    06:00 -11°C° 0.1 mm 1 mps 613 mmHg 81%
    07:00 -11°C° 0.1 mm 1 mps 612 mmHg 83%
    08:00 -10°C° 0.1 mm 1 mps 612 mmHg 84%
    09:00 -10°C° 0.1 mm 1 mps 612 mmHg 85%
    10:00 -9°C° 0.1 mm 1 mps 613 mmHg 85%
    11:00 -8°C° 0.3 mm 1 mps 612 mmHg 86%
    12:00 -8°C° 0.3 mm 1 mps 612 mmHg 87%
    13:00 -8°C° 0.3 mm 1 mps 611 mmHg 88%
    14:00 -9°C° 0.5 mm 2 mps 611 mmHg 90%
    15:00 -9°C° 0.5 mm 2 mps 611 mmHg 92%
    16:00 -9°C° 0.5 mm 2 mps 610 mmHg 94%
    17:00 -10°C° 0.6 mm 2 mps 610 mmHg 95%
    18:00 -10°C° 0.6 mm 2 mps 610 mmHg 96%
    19:00 -12°C° 0.6 mm 2 mps 610 mmHg 97%
    20:00 -12°C° 0.5 mm 2 mps 609 mmHg 97%
    21:00 -13°C° 0.5 mm 2 mps 609 mmHg 97%
    22:00 -13°C° 0.5 mm 2 mps 609 mmHg 97%
    23:00 -13°C° 0.6 mm 2 mps 609 mmHg 97%

    24 January, Thursday

    Time Temperature Precipitation Wind Pressure Humidity
    00:00 -14°C° 0.6 mm 2 mps 608 mmHg 97%
    01:00 -14°C° 0.6 mm 2 mps 608 mmHg 96%
    02:00 -12°C° 0.4 mm 1 mps 608 mmHg 95%
    03:00 -12°C° 0.4 mm 1 mps 609 mmHg 94%
    04:00 -12°C° 0.4 mm 0 mps 609 mmHg 93%
    05:00 -13°C° 0.1 mm 0 mps 609 mmHg 92%
    06:00 -13°C° 0.1 mm 0 mps 609 mmHg 91%
    07:00 -14°C° 0.1 mm 0 mps 609 mmHg 91%
    08:00 -12°C° 0 mm 0 mps 610 mmHg 88%
    09:00 -11°C° 0 mm 0 mps 611 mmHg 85%
    10:00 -9°C° 0 mm 0 mps 611 mmHg 82%
    11:00 -9°C° 0.1 mm 1 mps 611 mmHg 85%
    12:00 -9°C° 0.1 mm 2 mps 611 mmHg 88%
    13:00 -10°C° 0.1 mm 3 mps 612 mmHg 91%
    14:00 -10°C° 0.4 mm 3 mps 611 mmHg 92%
    15:00 -12°C° 0.4 mm 3 mps 611 mmHg 94%
    16:00 -12°C° 0.4 mm 3 mps 611 mmHg 95%
    17:00 -12°C° 0.5 mm 3 mps 612 mmHg 95%
    18:00 -13°C° 0.5 mm 3 mps 612 mmHg 96%
    19:00 -12°C° 0.5 mm 2 mps 612 mmHg 96%
    20:00 -12°C° 0.3 mm 2 mps 612 mmHg 96%
    21:00 -12°C° 0.3 mm 2 mps 612 mmHg 95%
    22:00 -10°C° 0.3 mm 1 mps 613 mmHg 95%
    23:00 -10°C° 0.2 mm 1 mps 613 mmHg 95%
    Show more